Regional Weather Roundup
Issued by NWS Northern Indiana

Home | Current Version | Previous Version | Text Only | Print | Product List | Glossary On
Versions: 1 2 3 4 5 6 7 8 9 10 11 12 13 14 15 16 17 18 19 20 21 22 23 24 25 26 27 28 29 30 31 32 33 34 35 36 37 38 39 40 41 42 43 44 45 46 47 48 49 50
000
ASUS43 KIWX 131410
RWRIWX

KIWX WEATHER ROUNDUP
NATIONAL WEATHER SERVICE NORTHERN INDIANA
900 AM EST WED DEC 13 2017

NOTE: "FAIR" INDICATES FEW OR NO CLOUDS BELOW 12,000 FEET WITH NO
SIGNIFICANT WEATHER AND/OR OBSTRUCTIONS TO VISIBILITY.

* THESE STATIONS ARE NOT UNDER NWS QUALITY CONTROL. THEY ALSO MAY NOT
  REPORT WEATHER SUCH AS PRECIPITATION OR FOG.

INZ001>027-131500-
NORTHERN INDIANA

CITY           SKY/WX    TMP DP  RH WIND       PRES   REMARKS
VALPARAISO     CLOUDY    25  11  55 S13       29.64F WCI  14
MICHIGAN CITY* CLOUDY    23  10  58 S10G23    29.63F WCI  12
LAPORTE*       MOCLDY    22  11  63 S12G17    29.65F WCI  10
KNOX*          CLOUDY    23  12  63 S14       29.69F WCI  11
SOUTH BEND     CLOUDY    21  11  65 S14       29.67F WCI   8
ELKHART*       CLOUDY    21  10  63 S9        29.69F WCI  11
GOSHEN         CLOUDY    21  10  62 S13       29.70F WCI   9
MONTICELLO*    CLOUDY    25   8  48 S10       29.71F WCI  15
LOGANSPORT*    CLOUDY    27  10  50 S14       29.73F WCI  15
ROCHESTER*     CLOUDY    27  14  59 S12       29.73F WCI  16
WARSAW*        CLOUDY    21  12  68 S8        29.72F WCI  12
AUBURN*        CLOUDY    21  10  63 S7        29.75F WCI  13
FORT WAYNE     CLOUDY    20  12  71 S12       29.76F WCI   8
HUNTINGTON*    CLOUDY    21   9  58 S8        29.75F WCI  12
PERU/GRISSOM   CLOUDY    24   9  52 S12       29.72F WCI  13
MARION*        LGT SNOW  22  10  60 S16       29.76F WCI   8

$$
INZ028>050-131500-
CENTRAL INDIANA

CITY           SKY/WX    TMP DP  RH WIND       PRES   REMARKS
LAFAYETTE      CLOUDY    26   9  48 S9        29.73F WCI  17
KOKOMO*        CLOUDY    23  11  60 S16       29.75F WCI  10
MUNCIE*        CLOUDY    24   8  50 S10       29.79F WCI  14
INDIANAPOLIS   CLOUDY    25   8  48 S13       29.79F WCI  14

$$
MIZ043>046-050>051-056>058-064>065-071>073-077>080-131500-
SOUTHWEST LOWER MICHIGAN

CITY           SKY/WX    TMP DP  RH WIND       PRES   REMARKS
BATTLE CREEK   LGT SNOW  18  10  71 S9        29.69F WCI   7
BENTON HARBOR  LGT SNOW  21  11  65 SE13      29.63F WCI   9
COLDWATER*     CLOUDY    19   8  62 S8        29.72F WCI   8
HILLSDALE*     CLOUDY    18   9  68 S7        29.71F WCI   8
HOLLAND        LGT SNOW  20  13  74 SE14      29.65F WCI   7
GRAND RAPIDS   LGT SNOW  18  17  96 SE8       29.68F VSB 3/4 WCI   8
KALAMAZOO      CLOUDY    19   9  65 S9        29.68F WCI   8
STURGIS*       CLOUDY    19  10  69 S13       29.69F WCI   5
THREE RIVERS*  CLOUDY    20  11  68 S9G16     29.69F WCI  10

$$
OHZ001>008-015>018-024>025-131500-
NORTHWEST OHIO

CITY           SKY/WX    TMP DP  RH WIND       PRES   REMARKS
WAUSEON*       CLOUDY    18  14  86 S12       29.77F WCI   5
DEFIANCE       CLOUDY    19  11  70 S9        29.79F WCI   8
FINDLAY        CLOUDY    20   9  62 S12       29.81F WCI   8
TOLEDO EXPRESS CLOUDY    18  12  77 S8        29.79F WCI   8
TOLEDO METCALF CLOUDY    20  11  68 S10       29.81F WCI   9
LIMA           CLOUDY    19  11  70 S10       29.80F WCI   7

$$
AND FOR LAKE MICHIGAN COASTAL AND OPEN LAKE BUOY OBSERVATIONS

STATION/POSITION TEMP    WIND        PRES    VSBY  WAVE
                 AIR SEA DIR/SP/G                  HT/PER
                 (F)     (DEG/KT/KT) (MB)    (MI)  (FT/S)
CALUMET HARBOR    26     170/ 12/ 19 1002.0F
MICHIGAN CITY     23     150/ 16/ 23   N/A
BURNS HARBOR      25     180/ 12/ 25 1003.4F
SAINT JOSEPH      22     180/  5/ 14 1003.7

$$
&&



USA.gov is the U.S. government's official web portal to all federal, state and local government web resources and services.